Location: Barletta
(41.3170°N, 16.2830°E)
Time: 04:38:55
(UTC+02:00)

ISS - Visible Passes

Search period start: 29 July 2021 00:00
Search period end: 08 August 2021 00:00
Orbit: 419 x 421 km, 51.6° (Epoch: 28 July)

Date Brightness Start Highest point End Pass type
(mag) Time Alt. Az. Time Alt. Az. Time Alt. Az.
29 Jul -3.0 21:38:00 10° NW 21:41:16 45° NNE 21:42:58 23° E visible
29 Jul -1.0 23:15:12 10° W 23:15:55 14° W 23:15:55 14° W visible
30 Jul -2.4 20:50:47 10° NW 20:53:51 31° NNE 20:56:54 10° E visible
30 Jul -2.7 22:27:32 10° WNW 22:30:17 36° WSW 22:30:17 36° WSW visible
31 Jul -3.7 21:40:05 10° WNW 21:43:26 66° SW 21:44:42 34° SSE visible
01 Aug -3.7 20:52:43 10° NW 20:56:06 74° NE 20:59:10 12° ESE visible
01 Aug -1.2 22:30:50 10° W 22:32:08 13° WSW 22:32:08 13° WSW visible
02 Aug -1.9 21:42:39 10° W 21:45:20 22° SW 21:46:39 17° SSW visible
03 Aug -2.6 20:54:57 10° WNW 20:58:06 37° SW 21:01:14 10° SSE visible
05 Aug -1.1 20:58:14 10° W 20:59:50 13° SW 21:01:27 10° SSW visible
